timestamp,wind_dir_avg,wind_spd_avg,wind_spd_max_dir,wind_spd_gust,battery_voltage,lat,long
2023-06-28 00:04:00+00:00,218.0,6.15,222.0,6.69,12.81,47.59359,-54.27349
2023-06-28 00:14:01+00:00,218.0,5.26,217.0,5.74,12.41,47.59359,-54.27349
2023-06-28 00:24:01+00:00,226.0,5.52,228.0,5.96,12.41,47.59359,-54.27349
2023-06-28 00:34:01+00:00,223.0,5.05,222.0,5.43,12.41,47.59359,-54.27349
2023-06-28 00:44:01+00:00,222.0,4.38,233.0,5.38,12.41,47.59359,-54.27349
2023-06-28 00:54:01+00:00,214.0,4.74,220.0,5.38,12.41,47.59359,-54.27349
2023-06-28 01:04:01+00:00,212.0,4.77,210.0,5.28,12.41,47.59359,-54.27349
2023-06-28 01:14:01+00:00,212.0,4.76,212.0,5.57,12.41,47.59359,-54.27349
2023-06-28 01:24:01+00:00,214.0,4.68,211.0,5.3,12.41,47.59359,-54.27349
2023-06-28 01:34:01+00:00,219.0,4.41,220.0,4.82,12.41,47.59359,-54.27349
2023-06-28 01:44:01+00:00,221.0,4.63,220.0,5.34,12.41,47.59359,-54.27349
2023-06-28 01:54:01+00:00,213.0,4.77,213.0,5.22,12.41,47.59359,-54.27349
2023-06-28 02:04:01+00:00,222.0,4.52,216.0,5.09,12.41,47.59359,-54.27349
2023-06-28 02:14:01+00:00,219.0,4.8,220.0,5.25,12.33,47.59359,-54.27349
2023-06-28 02:24:01+00:00,222.0,4.58,226.0,5.35,12.33,47.59359,-54.27349
2023-06-28 02:34:01+00:00,221.0,4.5,220.0,5.38,12.33,47.59359,-54.27349
2023-06-28 02:44:01+00:00,226.0,4.37,222.0,4.96,12.33,47.59359,-54.27349
2023-06-28 02:54:01+00:00,226.0,5.09,223.0,6.13,12.33,47.59359,-54.27349
2023-06-28 03:04:01+00:00,222.0,5.21,219.0,5.81,12.33,47.59359,-54.27349
2023-06-28 03:14:01+00:00,218.0,6.05,218.0,6.61,12.33,47.59359,-54.27349
2023-06-28 03:24:01+00:00,220.0,4.88,218.0,5.47,12.33,47.59359,-54.27349
2023-06-28 03:34:01+00:00,224.0,4.6,228.0,5.21,12.33,47.59359,-54.27349
2023-06-28 03:44:01+00:00,228.0,4.63,233.0,5.0,12.33,47.59359,-54.27349
2023-06-28 03:54:01+00:00,229.0,4.68,228.0,5.09,12.33,47.59359,-54.27349
2023-06-28 04:04:01+00:00,235.0,3.86,240.0,4.32,12.33,47.59359,-54.27349
2023-06-28 04:14:01+00:00,231.0,3.8,232.0,4.1,12.33,47.59359,-54.27349
2023-06-28 04:24:01+00:00,228.0,3.47,224.0,3.71,12.33,47.59359,-54.27349
2023-06-28 04:34:01+00:00,219.0,4.14,220.0,4.32,12.33,47.59359,-54.27349
2023-06-28 04:44:01+00:00,222.0,3.77,223.0,3.78,12.33,47.59359,-54.27349
2023-06-28 04:54:01+00:00,225.0,3.71,230.0,4.44,12.33,47.59359,-54.27349
2023-06-28 05:04:01+00:00,225.0,4.68,221.0,5.8,12.33,47.59359,-54.27349
2023-06-28 05:14:00+00:00,233.0,4.76,236.0,4.94,12.25,47.59359,-54.27349
2023-06-28 05:24:00+00:00,315.0,0.01,231.0,0.0,12.25,47.59359,-54.27349
2023-06-28 05:34:00+00:00,227.0,3.68,228.0,3.69,12.25,47.59359,-54.27349
2023-06-28 05:44:00+00:00,224.0,4.55,225.0,5.26,12.25,47.59359,-54.27349
2023-06-28 05:54:00+00:00,220.0,4.53,222.0,5.17,12.25,47.59359,-54.27349
2023-06-28 06:04:00+00:00,229.0,4.64,229.0,5.27,12.25,47.59359,-54.27349
2023-06-28 06:14:00+00:00,228.0,4.01,228.0,4.9,12.17,47.59359,-54.27349
2023-06-28 06:24:00+00:00,230.0,4.52,226.0,5.16,12.17,47.59359,-54.27349
2023-06-28 06:34:00+00:00,219.0,4.04,223.0,4.57,12.17,47.59359,-54.27349
2023-06-28 06:44:00+00:00,219.0,4.08,220.0,4.61,12.17,47.59359,-54.27349
2023-06-28 06:54:00+00:00,221.0,5.33,216.0,5.99,12.17,47.59359,-54.27349
2023-06-28 07:04:00+00:00,218.0,6.24,213.0,7.26,12.17,47.59359,-54.27349
2023-06-28 07:14:01+00:00,223.0,5.82,221.0,6.51,12.17,47.59359,-54.27349
2023-06-28 07:24:01+00:00,222.0,5.85,215.0,7.04,12.17,47.59359,-54.27349
2023-06-28 07:34:01+00:00,226.0,5.14,225.0,6.12,12.17,47.59359,-54.27349
2023-06-28 07:44:01+00:00,225.0,5.28,225.0,6.21,12.17,47.59359,-54.27349
2023-06-28 07:54:01+00:00,224.0,5.72,222.0,6.65,12.17,47.59359,-54.27349
2023-06-28 08:04:01+00:00,228.0,6.35,232.0,7.16,12.17,47.59359,-54.27349
2023-06-28 08:14:00+00:00,221.0,6.7,225.0,7.69,12.17,47.59359,-54.27349
2023-06-28 08:24:00+00:00,220.0,6.44,217.0,7.53,12.17,47.59359,-54.27349
2023-06-28 08:34:00+00:00,226.0,6.6,228.0,7.81,12.17,47.59359,-54.27349
2023-06-28 08:44:00+00:00,228.0,5.54,220.0,6.37,12.17,47.59359,-54.27349
2023-06-28 08:54:00+00:00,232.0,4.34,230.0,5.05,12.17,47.59359,-54.27349
2023-06-28 09:04:00+00:00,231.0,6.36,233.0,7.68,12.17,47.59359,-54.27349
2023-06-28 09:14:00+00:00,222.0,5.51,221.0,6.38,12.25,47.59359,-54.27349
2023-06-28 09:24:00+00:00,226.0,4.72,227.0,5.39,12.25,47.59359,-54.27349
2023-06-28 09:34:00+00:00,228.0,4.67,221.0,5.41,12.25,47.59359,-54.27349
2023-06-28 09:44:00+00:00,229.0,5.15,225.0,5.93,12.25,47.59359,-54.27349
2023-06-28 09:54:00+00:00,223.0,4.97,224.0,5.9,12.25,47.59359,-54.27349
2023-06-28 10:04:00+00:00,210.0,4.11,209.0,4.97,12.25,47.59359,-54.27349
2023-06-28 10:14:00+00:00,213.0,4.55,219.0,4.96,12.25,47.59359,-54.27349
2023-06-28 10:24:00+00:00,223.0,3.61,226.0,4.27,12.25,47.59359,-54.27349
2023-06-28 10:34:00+00:00,222.0,3.7,228.0,4.17,12.25,47.59359,-54.27349
2023-06-28 10:44:00+00:00,209.0,3.02,214.0,3.33,12.25,47.59359,-54.27349
2023-06-28 10:54:00+00:00,221.0,4.35,219.0,5.09,12.25,47.59359,-54.27349
2023-06-28 11:04:00+00:00,209.0,3.57,206.0,4.17,12.25,47.59359,-54.27349
2023-06-28 11:14:00+00:00,210.0,3.85,203.0,4.35,12.97,47.59359,-54.27349
2023-06-28 11:24:00+00:00,216.0,4.66,216.0,5.32,12.97,47.59359,-54.27349
2023-06-28 11:34:00+00:00,219.0,4.31,234.0,4.8,12.97,47.59359,-54.27349
2023-06-28 11:44:00+00:00,209.0,4.19,210.0,5.28,12.97,47.59359,-54.27349
2023-06-28 11:54:00+00:00,230.0,4.36,217.0,5.6,12.97,47.59359,-54.27349
2023-06-28 12:04:00+00:00,257.0,2.8,242.0,4.34,12.97,47.59359,-54.27349
2023-06-28 12:14:00+00:00,215.0,1.43,195.0,2.19,13.44,47.59359,-54.27349
2023-06-28 12:24:00+00:00,204.0,2.57,204.0,3.16,13.44,47.59359,-54.27349
2023-06-28 12:34:00+00:00,237.0,2.99,236.0,3.53,13.44,47.59359,-54.27349
2023-06-28 12:44:00+00:00,228.0,3.57,227.0,4.4,13.44,47.59359,-54.27349
2023-06-28 12:54:00+00:00,241.0,3.88,236.0,4.31,13.44,47.59359,-54.27349
2023-06-28 13:04:00+00:00,234.0,5.39,226.0,6.1,13.44,47.59359,-54.27349
2023-06-28 13:14:00+00:00,226.0,5.18,226.0,5.89,13.53,47.59359,-54.27349
2023-06-28 13:24:00+00:00,227.0,6.55,234.0,7.9,13.53,47.59359,-54.27349
2023-06-28 13:34:00+00:00,234.0,5.15,233.0,5.97,13.53,47.59359,-54.27349
2023-06-28 13:44:00+00:00,238.0,4.11,238.0,4.47,13.53,47.59359,-54.27349
2023-06-28 13:54:00+00:00,235.0,4.25,239.0,4.69,13.53,47.59359,-54.27349
2023-06-28 14:04:00+00:00,233.0,4.36,234.0,4.99,13.53,47.59359,-54.27349
2023-06-28 14:14:00+00:00,230.0,4.43,228.0,5.1,13.6,47.59359,-54.27349
2023-06-28 14:24:00+00:00,222.0,4.67,225.0,6.37,13.6,47.59359,-54.27349
2023-06-28 14:34:00+00:00,220.0,6.28,218.0,7.15,13.6,47.59359,-54.27349
2023-06-28 14:44:00+00:00,215.0,7.45,215.0,8.04,13.6,47.59359,-54.27349
2023-06-28 14:54:00+00:00,227.0,7.43,224.0,8.65,13.6,47.59359,-54.27349
2023-06-28 15:04:00+00:00,227.0,7.44,226.0,8.14,13.6,47.59359,-54.27349
2023-06-28 15:14:00+00:00,225.0,6.39,224.0,7.39,13.76,47.59359,-54.27349
2023-06-28 15:24:00+00:00,222.0,7.17,233.0,9.02,13.76,47.59359,-54.27349
2023-06-28 15:34:00+00:00,226.0,5.73,219.0,6.42,13.76,47.59359,-54.27349
2023-06-28 15:44:00+00:00,231.0,6.21,238.0,8.07,13.76,47.59359,-54.27349
2023-06-28 15:54:00+00:00,231.0,6.2,241.0,9.27,13.76,47.59359,-54.27349
2023-06-28 16:04:00+00:00,235.0,5.51,236.0,8.05,13.76,47.59359,-54.27349
2023-06-28 16:14:01+00:00,223.0,6.47,222.0,7.75,13.68,47.59359,-54.27349
2023-06-28 16:24:01+00:00,222.0,5.88,222.0,6.54,13.68,47.59359,-54.27349
2023-06-28 16:34:01+00:00,224.0,6.2,231.0,7.61,13.68,47.59359,-54.27349
2023-06-28 16:44:01+00:00,224.0,6.66,225.0,7.73,13.68,47.59359,-54.27349
2023-06-28 16:54:01+00:00,223.0,6.61,217.0,7.23,13.68,47.59359,-54.27349
2023-06-28 17:04:01+00:00,226.0,6.62,221.0,7.99,13.68,47.59359,-54.27349
2023-06-28 17:14:00+00:00,220.0,7.33,221.0,8.21,13.6,47.59359,-54.27349
2023-06-28 17:24:00+00:00,220.0,7.18,220.0,8.08,13.6,47.59359,-54.27349
2023-06-28 17:34:00+00:00,223.0,7.95,216.0,9.58,13.6,47.59359,-54.27349
2023-06-28 17:44:00+00:00,224.0,8.16,224.0,9.33,13.6,47.59359,-54.27349
2023-06-28 17:54:00+00:00,218.0,9.86,218.0,11.32,13.6,47.59359,-54.27349
2023-06-28 18:04:00+00:00,223.0,7.85,220.0,8.87,13.6,47.59359,-54.27349
2023-06-28 18:14:00+00:00,224.0,7.14,225.0,8.26,13.68,47.59359,-54.27349
2023-06-28 18:24:00+00:00,215.0,8.57,216.0,10.24,13.68,47.59359,-54.27349
2023-06-28 18:34:00+00:00,217.0,7.58,216.0,8.58,13.68,47.59359,-54.27349
2023-06-28 18:44:00+00:00,216.0,8.01,217.0,9.01,13.68,47.59359,-54.27349
2023-06-28 18:54:00+00:00,216.0,7.45,220.0,8.74,13.68,47.59359,-54.27349
2023-06-28 19:04:00+00:00,212.0,9.0,222.0,10.27,13.68,47.59359,-54.27349
2023-06-28 19:14:00+00:00,214.0,7.33,215.0,8.01,13.6,47.59359,-54.27349
2023-06-28 19:24:00+00:00,210.0,8.34,207.0,9.58,13.6,47.59359,-54.27349
2023-06-28 19:34:00+00:00,216.0,8.43,217.0,9.78,13.6,47.59359,-54.27349
2023-06-28 19:44:00+00:00,213.0,8.33,211.0,9.03,13.6,47.59359,-54.27349
2023-06-28 19:54:00+00:00,223.0,6.89,225.0,8.26,13.6,47.59359,-54.27349
2023-06-28 20:04:00+00:00,216.0,7.99,215.0,8.95,13.6,47.59359,-54.27349
2023-06-28 20:14:00+00:00,216.0,7.75,214.0,9.01,13.6,47.59359,-54.27349
2023-06-28 20:24:00+00:00,211.0,7.43,211.0,8.36,13.6,47.59359,-54.27349
2023-06-28 20:34:00+00:00,201.0,7.27,201.0,8.26,13.6,47.59359,-54.27349
2023-06-28 20:44:00+00:00,216.0,7.57,216.0,8.25,13.6,47.59359,-54.27349
2023-06-28 20:54:00+00:00,216.0,7.99,215.0,8.69,13.6,47.59359,-54.27349
2023-06-28 21:04:00+00:00,206.0,7.26,203.0,8.1,13.6,47.59359,-54.27349
2023-06-28 21:14:01+00:00,211.0,6.87,210.0,7.41,13.53,47.59359,-54.27349
2023-06-28 21:24:01+00:00,212.0,6.64,213.0,7.52,13.53,47.59359,-54.27349
2023-06-28 21:34:01+00:00,212.0,7.77,210.0,8.44,13.53,47.59359,-54.27349
2023-06-28 21:44:01+00:00,214.0,6.35,214.0,7.06,13.53,47.59359,-54.27349
2023-06-28 21:54:01+00:00,210.0,6.73,210.0,7.31,13.53,47.59359,-54.27349
2023-06-28 22:04:01+00:00,211.0,6.55,214.0,7.36,13.53,47.59359,-54.27349
2023-06-28 22:14:00+00:00,221.0,7.21,220.0,7.98,13.21,47.59359,-54.27349
2023-06-28 22:24:00+00:00,208.0,6.03,213.0,6.66,13.21,47.59359,-54.27349
2023-06-28 22:34:00+00:00,202.0,6.09,202.0,6.64,13.21,47.59359,-54.27349
2023-06-28 22:44:00+00:00,212.0,6.33,215.0,7.32,13.21,47.59359,-54.27349
2023-06-28 22:54:00+00:00,211.0,5.74,213.0,6.75,13.21,47.59359,-54.27349
2023-06-28 23:04:00+00:00,215.0,4.87,212.0,5.52,13.21,47.59359,-54.27349
2023-06-28 23:14:00+00:00,216.0,4.74,217.0,5.15,12.65,47.59359,-54.27349
2023-06-28 23:24:00+00:00,223.0,4.23,221.0,4.84,12.65,47.59359,-54.27349
2023-06-28 23:34:00+00:00,218.0,4.38,217.0,4.7,12.65,47.59359,-54.27349
2023-06-28 23:44:00+00:00,216.0,4.47,215.0,4.78,12.65,47.59359,-54.27349
2023-06-28 23:54:00+00:00,221.0,4.62,213.0,5.64,12.65,47.59359,-54.27349
